Tracking 31027 objects as of 19-Jul-2025
HD Live streaming from Space Station
objects crossing your sky now

STARLINK-2319

Track STARLINK-2319 now!
10-day predictions
STARLINK-2319 is classified as:


NORAD ID: 47790
Int'l Code: 2021-018D
Perigee: 553.5 km
Apogee: 555.3 km
Inclination: 53.1 °
Period: 95.6 minutes
Semi major axis: 6925 km
RCS: Unknown
Launch date: March 11, 2021
Source: United States (US)
Launch site: AIR FORCE EASTERN TEST RANGE (AFETR)
Your satellite tracking list
STARLINK-2062
Track 1 satellite(s)




NASA's NSSDC Master Catalog

Two Line Element Set (TLE):
1 47790U 21018D   25199.26677905  .00002754  00000-0  20374-3 0  9994
2 47790  53.0542 193.9856 0001311  81.1827 278.9311 15.06397319241699
Source of the keplerian elements: AFSPC